Regional Weather Roundup
Issued by NWS Northern Indiana

Home | Current Version | Previous Version | Graphics & Text | Print | Product List | Glossary On
Versions: 1 2 3 4 5 6 7 8 9 10 11 12 13 14 15 16 17 18 19 20 21 22 23 24 25 26 27 28 29 30 31 32 33 34 35 36 37 38 39 40 41 42 43 44 45 46 47 48 49 50
000
ASUS43 KIWX 200510
RWRIWX

KIWX WEATHER ROUNDUP
NATIONAL WEATHER SERVICE NORTHERN INDIANA
1200 AM EST FRI JAN 20 2017

NOTE: "FAIR" INDICATES FEW OR NO CLOUDS BELOW 12,000 FEET WITH NO
SIGNIFICANT WEATHER AND/OR OBSTRUCTIONS TO VISIBILITY.

* THESE STATIONS ARE NOT UNDER NWS QUALITY CONTROL. THEY ALSO MAY NOT
  REPORT WEATHER SUCH AS PRECIPITATION OR FOG.

INZ001>027-200600-
NORTHERN INDIANA

CITY           SKY/WX    TMP DP  RH WIND       PRES   REMARKS
GARY*          RAIN      38  37  97 NE6       29.75F
VALPARAISO     LGT RAIN  39  38  96 E10       29.72F FOG
LAPORTE*       LGT RAIN  37  37  98 E10       29.74F
KNOX*          CLOUDY    39  30  70 E8        29.73F
SOUTH BEND     RAIN      37  36  96 E8        29.76F FOG
GOSHEN         LGT RAIN  38  35  89 E10       29.76F FOG
ROCHESTER*     LGT RAIN  41  41 100 E8        29.73F
WARSAW*        LGT RAIN  37  34  87 E9        29.75F
FORT WAYNE     LGT RAIN  41  37  86 E12       29.77F FOG
PERU/GRISSOM   MIX PCPN  42  42 100 E12       29.69F FOG
MARION*        LGT RAIN  41  41 100 E9        29.73F

$$
INZ028>050-200600-
CENTRAL INDIANA

CITY           SKY/WX    TMP DP  RH WIND       PRES   REMARKS
LAFAYETTE      LGT RAIN  42  42 100 E9        29.68F FOG
KOKOMO*        RAIN      42  41  96 E13       29.71F FOG
MUNCIE*        LGT RAIN  44  41  89 E12       29.72F FOG
INDIANAPOLIS   LGT RAIN  44  43  96 E9        29.68F FOG

$$
MIZ043>046-050>051-056>058-064>065-071>073-077>080-200600-
SOUTHWEST LOWER MICHIGAN

CITY           SKY/WX    TMP DP  RH WIND       PRES   REMARKS
BATTLE CREEK   CLOUDY    36  34  92 E7        29.81F
BENTON HARBOR  LGT RAIN  39  36  89 E8        29.77F FOG
COLDWATER*     CLOUDY    37  37 100 E9        29.80F FOG
HILLSDALE*     CLOUDY    34  34 100 E8        29.80F FOG     WCI  27
HOLLAND        CLOUDY    38  34  85 E8        29.79F
GRAND RAPIDS   CLOUDY    36  32  85 E9        29.82F
KALAMAZOO      LGT RAIN  37  33  85 E5        29.80F FOG
STURGIS*       LGT RAIN  37  36  96 E6        29.78F
THREE RIVERS*  LGT RAIN  36  35  94 E5        29.79F

$$
OHZ001>008-015>018-024>025-200600-
NORTHWEST OHIO

CITY           SKY/WX    TMP DP  RH WIND       PRES   REMARKS
DEFIANCE       MOCLDY    36  34  92 E7        29.83F
FINDLAY        CLOUDY    39  34  82 E6        29.82F
TOLEDO EXPRESS PTCLDY    35  35 100 E8        29.84F WCI  29
TOLEDO METCALF MOCLDY    35  34  96 NE7       29.86F FOG     WCI  29
LIMA           CLOUDY    40  38  93 E10       29.79F

$$
AND FOR LAKE MICHIGAN COASTAL AND OPEN LAKE BUOY OBSERVATIONS

STATION/POSITION TEMP    WIND        PRES    VSBY  WAVE
                 AIR SEA DIR/SP/G                  HT/PER
                 (F)     (DEG/KT/KT) (MB)    (MI)  (FT/S)
CALUMET HARBOR    35      40/  9/ 12 1006.6F
MICHIGAN CITY     36      40/  8/ 10   N/A
BURNS HARBOR      35      70/  5/  7 1008.5F

$$
&&



USA.gov is the U.S. government's official web portal to all federal, state and local government web resources and services.